Buffalo, NY

8:34 AM EST on December 15, 2019 (GMT -0500)
Buffalo Niagara International

Weather History for KBUF - August, 2019

Change the Weather History Date:

Saturday, August 10, 2019

  Actual Average Record
Temperature  
Mean Temperature 67 °F 70 °F  
Max Temperature 75 °F 79 °F 92 °F (1947)
Min Temperature 59 °F 62 °F 50 °F (1948)
Degree Days  
Heating Degree Days 0 0  
Month to date heating degree days 0 0  
Since 1 June heating degree days 62 73  
Since 1 July heating degree days 0 9  
Cooling Degree Days 2 6  
Month to date cooling degree days 70 60  
Year to date cooling degree days 438 386  
Since 1 June cooling degree days 430 360  
Growing Degree Days 17 (Base 50)    
Moisture  
Dew Point 51 °F    
Average Humidity 56    
Maximum Humidity 73    
Minimum Humidity 38    
Precipitation  
Precipitation 0.00 in 0.11 in 2.40 in (1955)
Month to date precipitation 0.35 1.09  
Year to date precipitation 25.10 22.99  
Snow  
Snow 0.00 in 0.00 in 0.00 in ()
Month to date snowfall 0.0 0.0  
Since 1 June snowfall 0.0 0.0  
Since 1 July snowfall 0.0 0.0  
Snow Depth 0.00 in    
Sea Level Pressure  
Sea Level Pressure 29.92 in    
Wind  
Wind Speed 11 mph (WNW)    
Max Wind Speed 23 mph    
Max Gust Speed 29 mph    
Visibility 10 miles    
Events      
T = Trace of Precipitation, MM = Missing Value Source: NWS Daily Summary

Daily Weather History Graph

Daily Weather History Graph

Search for Another Location

Airport or City:

Astronomy

Aug. 10, 2019 Rise Set
Actual Time 6:15 AM EDT 8:24 PM EDT
Civil Twilight 5:44 AM EDT 8:55 PM EDT
Nautical Twilight 5:05 AM EDT 9:33 PM EDT
Astronomical Twilight 4:23 AM EDT 10:15 PM EDT
Moon 5:08 PM EDT (8/10) 1:48 AM EDT (8/10)
Length of Visible Light 15h 11m
Length of Day
14h 09m
Waxing Gibbous, 79% of the Moon is Illuminated
Aug 10
Waxing Gibbous
Aug 15
Full
Aug 23
Last Quarter
Aug 30
New
Sep 5
First Quarter

Hourly Weather History & Observations

Time (EDT) Temp. Dew Point Humidity Pressure Visibility Wind Dir Wind Speed Gust Speed Precip Events Conditions
12:54 AM 64.9 °F 53.1 °F 65% 29.87 in 10.0 mi NW 9.2 mph - N/A   Partly Cloudy
1:54 AM 64.0 °F 52.0 °F 65% 29.87 in 10.0 mi West 6.9 mph - N/A   Partly Cloudy
2:54 AM 62.1 °F 52.0 °F 70% 29.86 in 10.0 mi West 6.9 mph - N/A   Partly Cloudy
3:54 AM 61.0 °F 51.1 °F 70% 29.87 in 10.0 mi West 6.9 mph - N/A   Partly Cloudy
4:54 AM 61.0 °F 51.1 °F 70% 29.88 in 10.0 mi West 9.2 mph - N/A   Partly Cloudy
5:54 AM 60.1 °F 52.0 °F 75% 29.88 in 10.0 mi West 8.1 mph - N/A   Partly Cloudy
6:54 AM 60.1 °F 52.0 °F 75% 29.89 in 10.0 mi WNW 9.2 mph - N/A   Partly Cloudy
7:54 AM 62.1 °F 53.1 °F 72% 29.91 in 10.0 mi NW 10.4 mph - N/A   Partly Cloudy
8:54 AM 64.9 °F 55.0 °F 70% 29.93 in 10.0 mi NW 11.5 mph - N/A   Partly Cloudy
9:54 AM 69.1 °F 54.0 °F 58% 29.94 in 10.0 mi Variable 6.9 mph - N/A   Partly Cloudy
10:54 AM 70.0 °F 50.0 °F 49% 29.95 in 10.0 mi WNW 12.7 mph - N/A   Partly Cloudy
11:54 AM 72.0 °F 46.9 °F 41% 29.94 in 10.0 mi WNW 11.5 mph - N/A   Partly Cloudy
12:54 PM 73.0 °F 46.0 °F 38% 29.94 in 10.0 mi West 12.7 mph 19.6 mph N/A   Scattered Clouds
1:54 PM 72.0 °F 51.1 °F 48% 29.93 in 10.0 mi SW 16.1 mph 21.9 mph N/A   Mostly Cloudy
2:54 PM 73.9 °F 52.0 °F 46% 29.92 in 10.0 mi WSW 19.6 mph - N/A   Mostly Cloudy
3:54 PM 73.9 °F 54.0 °F 50% 29.92 in 10.0 mi SW 20.7 mph 26.5 mph N/A   Mostly Cloudy
4:54 PM 73.0 °F 55.0 °F 53% 29.91 in 10.0 mi WSW 18.4 mph 24.2 mph N/A   Mostly Cloudy
5:54 PM 72.0 °F 55.9 °F 57% 29.91 in 10.0 mi WSW 17.3 mph - N/A   Mostly Cloudy
6:54 PM 73.9 °F 46.9 °F 38% 29.91 in 10.0 mi WNW 17.3 mph - N/A   Partly Cloudy
7:54 PM 72.0 °F 46.9 °F 41% 29.93 in 10.0 mi NW 13.8 mph 23.0 mph N/A   Scattered Clouds
8:54 PM 69.1 °F 48.0 °F 47% 29.96 in 10.0 mi NNW 8.1 mph - N/A   Partly Cloudy
9:54 PM 66.9 °F 48.9 °F 52% 29.97 in 10.0 mi WNW 6.9 mph - N/A   Partly Cloudy
10:54 PM 64.9 °F 50.0 °F 58% 29.98 in 10.0 mi NW 5.8 mph - N/A   Partly Cloudy
11:54 PM 64.0 °F 51.1 °F 63% 29.99 in 10.0 mi NW 3.5 mph - N/A   Clear